Hourly Data Report for October 07, 2015

All times are specified in Local Standard Time (LST). Add 1 hour to adjust for Daylight Saving Time where and when it is observed.

ST LEONARD CS
NEW BRUNSWICK

47°09'28.050" N
67°49'55.014" W
245.00 m
810I001
71019
WIY

Download Data

Hourly Data (October 2015)
Hourly Data Report for October 7, 2015
Temp Definition
°C
Dew Point Temp Definition
°C
Rel Hum Definition
%
Wind Dir Definition
10's deg

Wind Spd Definition
km/h
Visibility Definition
km
Stn Press Definition
kPa
Hmdx Definition


Wind Chill Definition


Weather Definition


TIME
00:00 8.8 5.8 82 29 7   98.18     LegendNANA
01:00 8.6 5.6 81 26 6   98.16     LegendNANA
02:00 8.1 5.5 84 27 7   98.13     LegendNANA
03:00 7.0 5.0 87 27 9   98.11     LegendNANA
04:00 5.6 4.5 92 29 7   98.06     LegendNANA
05:00 4.6 3.9 95 29 8   98.07     LegendNANA
06:00 3.0 2.4 96 29 6   98.05     LegendNANA
07:00 2.8 2.4 97 27 5   98.06     LegendNANA
08:00 6.5 4.7 88 23 1   98.06     LegendNANA
09:00 7.1 4.7 85 22 5   98.11     LegendNANA
10:00 10.0 5.8 75 27 12   98.09     LegendNANA
11:00 12.0 5.1 63 26 15   98.06     LegendNANA
12:00 13.6 6.3 61 28 14   98.00     LegendNANA
13:00 15.0 6.7 58 27 19   97.94     LegendNANA
14:00 15.8 6.3 53 29 18   97.88     LegendNANA
15:00 16.9 6.2 49 29 14   97.83     LegendNANA
16:00 14.7 8.0 64 25 7   97.86     LegendNANA
17:00 13.4 9.0 75 20 7   97.87     LegendNANA
18:00 11.2 8.3 82 32 16   97.95     LegendNANA
19:00 10.8 8.0 83 30 13   98.00     LegendNANA
20:00 10.8 7.3 79 31 13   98.08     LegendNANA
21:00 10.1 6.5 79 30 18   98.12     LegendNANA
22:00 9.6 4.6 71 30 24   98.18     LegendNANA
23:00 7.1 3.0 75 30 17   98.23     LegendNANA

Notes on Data Quality.

Legend

  • E = Estimated
  • M = Missing
  • NA = Not Available
  • ‡ = Partner data that is not subject to review by the National Climate Archives
Date modified: